Дата Пункты Температура Давл., мм. Влажн., % Ветер Погодные явления
Воздуха Воды Направл. Скорость
22.09.14 05:00 Одесса 18.0 20.0 754 82 Ю-В 7 06 часов
22.09.14 02:00 Одесса 18.0 20.0 755 79 Ю-В 6 03 часа
21.09.14 08:00 Одесса 18.0 20.0 757 75 Ю-В 5 21 час
21.09.14 05:00 Одесса 18.0 21.0 757 72 Ю-В 4 18 часов
21.09.14 02:00 Одесса 18.0 21.0 758 74 Ю-В 4 15 часов
21.09.14 11:00 Одесса 19.0 20.0 759 66 Ю-В 5 12 часов
21.09.14 08:00 Одесса 18.0 20.0 759 72 Ю-В 6 09 часов
21.09.14 05:00 Одесса 19.0 20.0 759 76 Ю-В 6 06 часов
21.09.14 02:00 Одесса 19.0 20.0 759 71 Ю-В 4 03 часа
20.09.14 08:00 Одесса 16.0 20.0 761 58 Ю-З 2 21 час
20.09.14 05:00 Одесса 19.0 21.0 762 48 Ю 2 18 часов
20.09.14 02:00 Одесса 20.0 21.0 762 52 Ю-В 3 15 часов
20.09.14 11:00 Одесса 20.0 20.0 763 63 В 4 12 часов
20.09.14 08:00 Одесса 16.0 20.0 763 64 С 2 09 часов
20.09.14 05:00 Одесса 12.0 20.0 763 74 С-З 1 06 часов
20.09.14 02:00 Одесса 14.0 20.0 763 81 С-В 1 03 часа
19.09.14 08:00 Одесса 15.0 20.0 764 43 С-З 1 21 час
19.09.14 05:00 Одесса 20.0 20.0 763 29 Ю 1 18 часов
19.09.14 02:00 Одесса 21.0 20.0 764 36 В 2 15 часов
19.09.14 11:00 Одесса 19.0 20.0 765 41 С-В 3 12 часов
Количество строк
361 362 363 364
Page 361 of 364